COSMOS 1932 DEB

Satellite information

Favourite Embed

Satellite Type and Status

DEBRISIN ORBIT

Key statistics

Satellite COSMOS 1932 DEB at a glance.

Uptime

13630

Days in orbit

Revolutions

≈ 13.8

Per day

Orbit

LEO

Low Earth Orbit

Inclination

65.0

Latest

Satellite identification and parameters

Extended collection of information and parameters for COSMOS 1932 DEB.

Object identification

Identified? True

Debris? True

Object name: COSMOS 1932 DEB

International designator: 1988-019F

Object number (NORAD): 28275

Object ID (CCSDS): 28275

Country: COMMONWEALTH OF INDEPENDENT STATES (CIS)

Current information (Y/N): Y

RCS size: SMALL

Orbital parameters

Period: 104.148 minutes

Inclination: 65.0438 deg

SMA: 7332.649 km

Apoapsis: 991.051 km

Periapsis: 917.977 km

RAAN: 247.6638 deg

Eccentricy: 0.0049828

Argument of periapsis: 325.4404 deg

Mean anomaly: 49.1256 deg

Mean motion: 13.82647297 rev/day

Mean motion (dot): 0.00000041 rev/day2

B* drag term: 0.00011803 1/REarth

Two-line elements (TLE)

Creation date: July 5, 2025, 4:36 a.m.

Reference frame: TEME

Reference center: EARTH

Epoch: July 4, 2025, 10:42 a.m. UTC

TLE line 0: 0 COSMOS 1932 DEB

TLE line 1: 1 28275U 88019F 25185.44594102 .00000041 00000-0 11803-3 0 9991

TLE line 2: 2 28275 65.0438 247.6638 0049828 325.4404 49.1256 13.82647297595534

Live tracking on map

Real-time ground track for satellite COSMOS 1932 DEB.

In-orbit conjunctions

A list of the most updated potential collisions computed for object COSMOS 1932 DEB.

Target Orbit TCA Probability of collision Miss distance Type
ATLAS D R/B SSO 2025-02-23 00:17:42 0.0003171164 388.0 (m) ROCKET BODY
FENGYUN 1C DEB SSO 2025-02-02 14:32:18 0.0001282798 97.0 (m) DEBRIS

Associated space launch

Active radar satellite for ocean surveillance powered by a nuclear reactor.

COSMOS 1932 DEB was lifted into orbit during the mission ‘Tsiklon-2 | US-A 32’, on board a Tsiklon-2 space rocket.

The launch took place on March 14, 1988, 2:21 p.m. from 90.

For more information about the launch, click the button.

Launch to space Tsiklon-2 | US-A 32
Tsiklon-2 | US-A 32

Agency: N/A

Status: Launch Successful

Launch date: March 14, 1988, 2:21 p.m. UTC

Rocket: Tsiklon-2

Launch pad: 90

Location: Baikonur Cosmodrome, Republic of Kazakhstan

...

Latest news about this satellite

There are no fresh news available about this satellite. Check back as we update our databases every day.


Newsletter sign-up

Weekly statistics, charts and insights to help you stay on top of the space industry.